Wind_Speed
26 24 21 19 20 18 23 25 30 24 21 17 13 13 11 6 5 10 15 22 25 23 19 16 15 15 17 22 26 28 25 17 12 9 9 9 8 8 7 6 7 8 9 9 8 8 9 10 11
30 28 25 21 20 18 29 30 30 25 23 18 15 14 11 9 7 12 17 22 25 22 18 16 14 14 16 18 22 25 27 18 12 9 7 8 7 6 6 5 5 6 8 8 7 6 8 9 9
34 32 29 26 20 19 30 35 32 28 24 23 21 15 13 11 10 14 18 23 25 19 17 16 14 12 14 17 19 22 25 21 12 8 6 6 6 5 4 4 3 4 5 7 5 3 5 8 10
38 36 34 30 23 21 32 34 35 33 28 25 23 21 15 12 13 16 18 19 19 17 16 15 14 12 12 14 17 19 22 22 13 8 6 4 5 5 3 2 1 2 3 5 3 1 3 10 12
39 38 36 32 27 23 29 35 37 35 31 28 28 23 19 18 18 17 16 14 16 14 17 16 14 13 12 12 15 17 19 20 16 9 6 4 3 5 5 2 1 2 0 1 4 3 7 11 15
42 41 39 34 30 26 29 31 38 40 36 32 30 29 27 21 18 17 15 16 15 16 16 17 14 13 12 12 13 14 17 18 16 10 8 6 4 4 6 6 4 4 4 3 4 7 7 11 11
45 44 42 37 33 30 32 36 36 39 40 38 35 35 33 27 24 21 19 16 18 20 19 17 14 12 12 11 12 13 14 16 16 12 9 8 6 6 6 7 8 7 7 6 6 7 9 12 12
46 47 45 40 36 33 35 37 39 39 41 40 40 40 37 34 30 28 23 20 19 17 20 19 14 12 13 12 12 11 12 14 15 13 10 9 9 7 8 7 8 9 11 10 8 9 11 13 15
50 50 45 40 38 34 36 37 39 41 42 41 41 38 40 40 36 30 29 25 22 21 21 20 16 13 13 13 12 11 11 12 12 12 11 10 10 10 9 9 10 10 11 13 13 12 13 16 19
53 51 45 40 38 36 40 42 41 44 44 44 43 42 43 40 40 37 32 31 28 25 21 18 18 17 15 15 13 12 11 12 12 12 10 10 10 11 12 12 13 12 12 13 15 16 17 18 21
53 51 46 44 43 41 42 45 47 47 47 48 48 47 46 45 42 39 37 35 34 28 24 21 21 21 19 17 15 14 13 13 13 12 11 10 10 11 12 15 16 15 15 14 15 17 19 21 22
53 51 48 45 44 45 43 48 50 50 50 50 51 49 47 45 42 40 39 37 34 25 23 24 26 23 22 20 17 16 15 15 15 14 13 11 9 9 11 13 16 16 16 17 18 17 19 22 24
54 51 50 46 45 46 45 48 50 48 51 52 51 45 45 46 43 42 39 38 33 26 21 25 28 24 23 23 21 18 17 18 17 16 15 14 12 11 10 12 15 18 18 18 20 19 19 21 24
55 57 52 48 46 48 48 45 51 44 51 52 50 47 44 44 44 40 38 36 29 23 22 23 27 27 23 25 24 22 20 20 21 19 17 16 15 14 12 12 14 17 19 19 19 21 22 23 25
60 59 58 51 45 45 48 49 49 39 50 52 49 46 44 43 42 36 33 32 28 21 18 23 27 28 25 26 26 25 25 23 22 22 20 18 18 17 15 14 14 15 17 17 19 21 23 25 26
57 62 60 51 49 48 50 51 44 43 51 53 51 46 43 41 39 38 34 32 29 26 24 23 28 28 27 28 28 28 28 26 25 25 24 21 20 21 19 17 16 15 17 17 18 19 22 26 28
60 59 59 53 55 56 56 52 45 47 49 56 54 49 47 44 41 40 36 33 34 33 30 25 25 27 28 29 31 31 27 29 29 29 28 24 23 22 23 22 20 17 18 19 20 20 22 24 27
61 62 61 62 58 56 58 56 51 50 53 52 57 52 48 45 43 42 41 40 39 39 35 34 28 26 25 27 28 29 28 30 32 34 30 26 25 25 25 25 25 21 22 24 24 25 25 26 26
65 65 67 65 66 64 63 61 57 58 56 56 54 53 50 49 47 47 46 45 45 44 40 38 38 30 29 23 27 27 32 32 34 36 33 30 27 28 27 28 27 26 26 28 28 29 30 30 31
66 66 66 67 66 65 65 65 60 56 53 54 56 55 54 51 51 51 50 48 47 47 44 42 38 34 35 31 30 30 33 35 35 36 34 33 32 33 31 31 30 29 30 32 32 32 33 34 35
63 63 61 66 67 67 67 69 67 64 55 54 61 53 54 53 49 49 51 50 50 49 45 41 40 39 36 35 36 31 30 34 36 37 37 37 38 36 34 33 33 33 33 34 35 36 36 37 37
61 57 61 63 66 67 65 70 68 62 67 63 50 51 58 59 53 55 49 47 49 47 43 44 45 42 40 43 39 34 33 33 34 37 39 39 40 38 37 37 38 38 37 36 37 38 38 39 40
61 59 60 60 61 61 62 67 62 63 63 59 57 62 56 56 56 52 56 55 47 48 47 48 47 44 43 42 40 37 35 35 36 38 39 41 42 41 41 41 41 41 40 40 41 41 41 42 42
60 60 59 61 64 67 63 62 68 64 57 55 55 56 56 57 56 55 52 52 51 46 44 47 50 51 51 47 41 38 36 34 37 39 41 43 44 43 43 43 43 43 43 43 44 45 45 45 45
64 62 64 66 68 75 69 72 70 64 59 58 56 54 54 53 55 57 60 57 58 61 54 55 55 54 49 45 47 41 37 37 40 42 42 45 46 45 44 47 47 45 45 46 48 47 47 46 48
67 65 67 68 74 75 70 71 68 67 67 61 56 52 52 52 53 55 55 56 56 56 55 53 56 54 52 51 48 43 39 37 37 39 42 48 45 44 43 48 45 43 44 46 48 49 48 47 48
63 67 62 65 67 71 74 72 71 66 66 60 59 58 54 52 53 54 55 57 58 57 56 54 54 56 57 55 53 46 43 39 40 40 45 51 47 45 48 49 47 45 47 48 48 48 46 48 48
69 63 53 56 63 68 74 71 73 67 65 62 58 54 54 54 53 51 52 54 55 56 57 57 57 57 58 59 57 53 44 44 43 45 53 52 47 45 45 44 44 44 44 45 48 50 49 47 49
62 61 64 57 43 64 64 72 70 65 62 63 62 61 60 57 57 56 54 54 55 55 54 53 50 49 51 54 56 55 46 45 46 51 54 51 49 50 49 44 41 43 46 50 47 49 49 48 46
67 70 60 68 69 49 41 53 52 60 67 70 65 64 62 59 57 57 56 55 57 56 55 54 49 49 49 49 50 54 49 46 49 52 53 53 53 53 47 44 45 44 45 48 47 50 46 45 44
Wind_Direction
230 228 229 220 217 203 195 206 229 231 228 227 191 207 236 244 288 302 319 325 328 329 335 338 341 347 358 11 18 18 16 15 23 32 32 30 48 56 44 34 39 44 50 41 50 69 85 89 99
231 232 230 229 222 204 201 209 227 236 238 227 218 225 237 256 280 301 318 318 318 322 329 331 336 341 353 8 11 15 15 13 17 26 38 25 35 51 57 46 46 40 55 45 49 63 95 104 117
231 232 232 231 225 209 208 212 221 233 235 232 229 228 236 246 277 296 303 300 308 313 318 324 331 336 348 3 6 10 12 11 11 20 23 33 12 28 54 49 49 47 59 56 42 64 107 121 115
232 233 233 230 229 217 217 218 220 231 233 238 238 230 231 240 258 270 276 290 309 309 311 318 326 334 344 353 0 6 7 9 4 7 11 22 4 353 24 39 22 48 60 79 73 353 147 137 120
233 233 235 233 230 221 227 225 225 226 238 240 243 238 221 232 247 256 272 284 297 301 304 308 318 329 338 347 352 360 3 4 5 353 354 349 348 337 332 319 293 275 343 82 132 188 181 150 136
232 232 231 231 229 222 227 232 233 233 233 243 244 247 245 256 264 258 254 273 283 295 290 294 306 320 331 336 344 352 0 0 2 351 339 330 319 318 322 310 278 260 256 250 170 192 202 178 162
232 231 231 227 223 222 221 232 240 241 236 238 244 245 250 258 261 256 257 260 271 285 280 279 291 310 321 326 333 343 351 353 355 354 336 327 313 304 306 309 300 275 261 252 238 193 215 202 194
233 233 231 228 220 224 225 226 235 242 248 245 245 252 254 260 263 264 252 260 274 269 269 275 284 300 309 316 324 330 344 345 349 352 341 320 308 295 294 294 295 298 276 259 246 235 218 226 211
236 234 232 231 226 223 231 228 233 241 245 248 252 254 256 261 265 269 271 267 268 268 265 273 278 289 295 302 312 318 326 331 339 348 346 325 309 298 286 287 283 285 285 274 260 243 239 229 228
238 238 235 233 232 226 231 235 232 238 245 249 252 254 255 258 263 267 270 270 264 266 266 272 275 278 281 288 296 306 312 316 315 329 339 333 310 297 289 281 280 279 281 282 271 263 252 247 246
239 239 238 235 235 229 228 236 238 237 240 247 252 254 257 261 266 270 273 272 270 261 265 267 265 271 275 278 285 293 302 300 304 307 316 325 324 305 295 289 287 287 288 280 273 267 265 263 258
241 240 236 234 235 234 226 234 236 238 241 244 248 253 258 261 265 269 272 275 275 264 266 263 262 265 272 275 277 285 291 289 290 293 300 306 315 312 303 294 291 288 286 285 277 270 266 265 266
240 239 239 234 234 234 229 231 235 236 241 243 246 251 256 260 261 266 272 276 279 271 262 250 264 263 267 275 279 279 283 286 284 285 290 293 295 302 306 302 295 291 285 282 281 276 268 265 267
240 240 239 238 235 236 235 228 235 234 239 243 246 249 253 258 263 266 272 278 282 273 260 250 259 260 263 272 275 279 279 281 282 281 279 282 281 286 290 297 295 292 288 285 283 280 275 271 269
239 240 241 239 237 238 239 234 240 237 240 241 243 246 250 255 261 266 270 275 279 271 255 252 255 260 261 265 271 275 276 276 276 278 276 274 278 279 280 284 288 290 292 288 282 279 279 280 280
238 239 239 236 241 240 239 239 234 235 241 243 244 245 245 249 255 262 264 267 265 261 255 243 255 264 265 265 267 270 274 276 277 277 277 275 274 278 278 277 278 284 288 288 284 283 280 278 278
239 239 239 240 241 242 241 239 233 232 235 238 245 247 249 247 249 256 259 257 259 260 258 253 250 256 260 264 268 268 272 275 275 275 274 276 274 273 276 277 276 278 281 283 284 286 288 284 283
240 240 238 240 239 241 243 239 237 231 232 232 237 246 247 248 250 254 256 257 255 256 261 264 257 254 256 260 263 270 269 269 270 269 272 274 272 274 273 274 275 274 275 278 282 286 286 284 285
240 238 238 239 239 243 245 242 238 235 232 235 235 240 245 249 250 252 254 256 260 262 265 266 272 282 272 264 262 265 272 270 272 275 273 274 271 271 269 269 272 273 273 276 279 281 284 285 285
238 239 239 240 241 243 244 241 240 240 238 238 238 240 245 248 253 258 260 261 263 264 266 272 276 276 277 279 268 264 265 270 269 269 273 273 270 268 268 271 273 272 271 273 275 277 280 282 282
239 240 241 243 243 243 243 240 241 241 241 237 239 239 244 248 249 253 256 258 258 262 266 269 272 271 271 270 269 265 258 263 267 268 266 266 267 269 271 270 270 271 271 272 274 275 278 281 283
238 240 241 242 245 245 246 244 240 245 241 240 240 244 248 248 250 250 250 256 261 263 261 261 260 262 261 262 261 259 256 255 258 264 265 266 266 267 267 268 268 268 269 272 275 276 277 280 282
238 239 240 242 244 246 244 248 239 241 244 246 248 242 247 243 245 248 249 247 248 252 251 254 254 249 247 252 255 256 258 252 254 257 262 262 263 263 264 266 267 269 272 275 276 279 280 282 283
238 240 242 244 246 247 244 248 243 244 246 246 248 247 247 246 244 246 243 244 248 243 238 246 251 254 258 257 255 254 250 252 253 251 256 260 263 265 265 265 267 269 271 276 278 282 281 284 286
234 235 239 242 241 244 244 244 242 243 243 242 242 244 244 243 244 246 245 248 250 248 251 253 256 258 254 256 258 253 255 252 250 251 253 259 263 265 266 266 266 269 273 278 278 281 281 285 287
239 238 237 240 242 243 245 248 242 245 247 247 245 244 244 245 244 244 245 246 248 249 250 249 251 252 253 253 253 255 253 247 246 249 254 259 264 269 274 274 274 272 272 272 278 281 283 287 290
236 238 244 247 249 252 251 251 246 244 247 248 251 247 244 243 244 243 244 246 247 249 251 251 252 254 254 253 253 251 252 242 249 255 254 257 262 266 270 274 273 272 273 277 277 279 284 288 289
237 238 237 239 246 247 249 249 247 244 246 246 245 245 243 239 239 240 242 243 245 246 247 249 250 253 256 258 259 258 251 242 247 251 255 258 262 266 270 273 271 272 275 276 279 282 287 287 290
233 232 233 233 251 250 252 252 250 244 248 246 246 246 244 242 240 238 238 241 242 246 248 250 251 251 253 256 256 256 254 246 249 251 256 262 263 266 269 267 269 274 278 278 280 284 287 290 290
235 234 232 233 231 238 239 241 245 246 246 245 247 247 247 245 244 243 242 240 242 243 245 247 247 246 246 248 250 254 252 245 249 253 257 260 261 265 268 268 271 274 277 277 279 282 287 293 297
Height
5860 5862 5865 5868 5872 5872 5872 5873 5870 5874 5876 5878 5882 5884 5884 5885 5887 5889 5887 5887 5887 5887 5887 5886 5884 5883 5880 5878 5875 5874 5873 5871 5871 5871 5870 5869 5869 5869 5868 5868 5868 5867 5866 5867 5866 5865 5864 5863 5863
5856 5858 5862 5864 5867 5869 5869 5869 5869 5871 5873 5877 5879 5881 5883 5884 5885 5885 5885 5885 5885 5885 5886 5885 5884 5882 5880 5877 5876 5875 5873 5871 5871 5871 5870 5870 5869 5869 5869 5869 5868 5868 5868 5868 5867 5866 5865 5865 5865
5852 5854 5858 5859 5864 5866 5866 5866 5867 5868 5871 5873 5876 5878 5880 5882 5882 5883 5883 5883 5882 5883 5885 5884 5883 5882 5880 5877 5876 5875 5873 5871 5870 5870 5870 5869 5869 5869 5869 5869 5869 5869 5869 5870 5869 5868 5868 5867 5866
5847 5850 5853 5856 5861 5862 5861 5863 5864 5866 5868 5869 5871 5873 5877 5879 5880 5880 5880 5881 5881 5882 5883 5883 5882 5881 5879 5877 5876 5875 5873 5871 5869 5869 5869 5868 5868 5868 5868 5869 5869 5869 5869 5870 5871 5870 5870 5869 5869
5841 5844 5847 5853 5857 5858 5858 5860 5861 5862 5865 5868 5868 5870 5872 5874 5876 5877 5878 5879 5879 5880 5882 5882 5881 5879 5877 5877 5876 5874 5872 5870 5868 5867 5867 5867 5867 5868 5867 5868 5868 5869 5870 5870 5871 5871 5871 5871 5871
5835 5838 5841 5848 5853 5854 5854 5855 5857 5859 5862 5864 5866 5867 5869 5871 5872 5874 5876 5878 5877 5878 5879 5880 5879 5877 5876 5875 5875 5874 5872 5870 5868 5866 5866 5866 5866 5867 5867 5867 5867 5868 5869 5870 5870 5871 5872 5873 5872
5827 5831 5835 5841 5847 5849 5849 5850 5852 5854 5858 5860 5864 5864 5866 5868 5870 5871 5873 5875 5876 5876 5876 5877 5877 5875 5875 5874 5873 5873 5872 5870 5868 5866 5865 5865 5866 5866 5866 5867 5867 5868 5868 5869 5869 5870 5871 5872 5873
5820 5823 5829 5835 5841 5844 5843 5845 5848 5850 5850 5854 5858 5859 5863 5863 5866 5867 5868 5871 5873 5873 5873 5873 5874 5873 5872 5871 5871 5871 5870 5869 5867 5865 5864 5863 5864 5864 5865 5865 5866 5867 5868 5868 5868 5869 5870 5870 5871
5811 5815 5823 5831 5835 5839 5837 5839 5842 5845 5846 5849 5851 5856 5857 5859 5861 5864 5866 5868 5869 5870 5870 5870 5870 5870 5870 5869 5869 5869 5868 5868 5867 5865 5863 5862 5862 5862 5862 5863 5864 5865 5865 5866 5867 5868 5868 5868 5869
5801 5808 5818 5825 5827 5830 5831 5831 5835 5838 5840 5843 5846 5849 5850 5854 5857 5859 5862 5863 5865 5866 5867 5867 5866 5866 5867 5867 5866 5866 5866 5866 5865 5864 5862 5861 5860 5860 5861 5860 5861 5861 5863 5864 5864 5866 5866 5866 5867
5794 5801 5809 5815 5816 5820 5823 5824 5828 5831 5834 5837 5839 5842 5845 5848 5853 5855 5857 5858 5858 5863 5863 5863 5862 5862 5863 5863 5863 5863 5863 5864 5863 5862 5861 5860 5859 5859 5858 5859 5859 5860 5860 5860 5861 5861 5862 5863 5863
5784 5792 5798 5805 5807 5810 5816 5815 5818 5823 5827 5829 5832 5836 5839 5842 5847 5850 5852 5853 5854 5857 5859 5859 5858 5858 5859 5859 5860 5860 5860 5861 5861 5860 5859 5859 5857 5857 5856 5856 5856 5856 5856 5857 5857 5857 5858 5858 5858
5774 5782 5786 5794 5796 5801 5806 5807 5810 5818 5818 5821 5825 5830 5832 5835 5840 5843 5846 5847 5850 5853 5853 5854 5853 5854 5854 5854 5855 5856 5857 5858 5858 5858 5857 5856 5855 5855 5854 5854 5853 5853 5852 5852 5852 5853 5853 5853 5853
5767 5769 5775 5783 5789 5792 5797 5800 5799 5815 5810 5813 5818 5822 5826 5828 5832 5836 5839 5841 5845 5848 5848 5849 5849 5849 5850 5850 5850 5851 5853 5854 5854 5854 5854 5853 5852 5851 5850 5850 5850 5849 5849 5848 5848 5848 5848 5848 5847
5755 5760 5764 5774 5781 5785 5788 5791 5796 5811 5803 5805 5808 5815 5818 5822 5825 5830 5833 5835 5838 5841 5842 5843 5843 5844 5845 5845 5845 5846 5847 5849 5849 5849 5850 5849 5848 5847 5847 5846 5845 5844 5844 5844 5844 5843 5843 5842 5843
5742 5747 5754 5767 5772 5775 5776 5784 5794 5796 5793 5797 5802 5806 5811 5814 5818 5821 5825 5828 5830 5832 5835 5837 5838 5838 5840 5840 5840 5842 5843 5844 5844 5844 5845 5845 5844 5843 5842 5841 5841 5840 5840 5839 5839 5838 5838 5837 5837
5730 5740 5747 5755 5758 5760 5762 5775 5785 5785 5783 5789 5792 5798 5802 5806 5810 5811 5816 5820 5821 5823 5825 5829 5832 5834 5834 5835 5836 5837 5837 5838 5838 5837 5838 5839 5839 5839 5838 5837 5836 5835 5835 5834 5834 5834 5833 5832 5830
5725 5730 5735 5738 5746 5745 5749 5763 5769 5771 5773 5779 5783 5787 5793 5797 5801 5803 5806 5808 5812 5815 5817 5820 5825 5827 5829 5829 5829 5829 5830 5830 5829 5829 5830 5831 5833 5833 5832 5831 5831 5829 5829 5828 5828 5827 5827 5825 5824
5710 5715 5719 5723 5729 5732 5737 5746 5752 5755 5762 5770 5776 5779 5785 5789 5794 5795 5797 5800 5802 5805 5809 5814 5815 5817 5819 5822 5821 5820 5821 5822 5823 5822 5823 5824 5825 5825 5825 5824 5824 5824 5823 5822 5821 5820 5820 5819 5817
5692 5699 5710 5711 5714 5720 5724 5731 5738 5744 5755 5763 5768 5772 5776 5781 5786 5788 5789 5792 5794 5797 5801 5803 5807 5808 5808 5809 5812 5813 5814 5814 5813 5813 5815 5815 5815 5815 5817 5817 5817 5817 5816 5815 5815 5813 5813 5812 5811
5682 5688 5699 5697 5699 5704 5707 5713 5723 5734 5742 5749 5758 5766 5770 5775 5777 5780 5781 5783 5786 5790 5793 5795 5796 5798 5799 5800 5801 5803 5806 5807 5806 5805 5805 5805 5804 5806 5808 5809 5809 5809 5809 5808 5807 5806 5805 5804 5803
5667 5682 5677 5680 5683 5688 5688 5697 5708 5726 5730 5737 5749 5756 5761 5763 5767 5771 5774 5776 5776 5780 5782 5783 5787 5789 5790 5791 5793 5795 5796 5797 5796 5796 5796 5796 5795 5797 5799 5799 5799 5799 5798 5797 5797 5797 5796 5795 5793
5661 5662 5663 5665 5668 5668 5679 5683 5706 5710 5718 5731 5741 5745 5749 5753 5754 5759 5763 5765 5767 5769 5773 5774 5775 5776 5780 5782 5784 5786 5787 5787 5787 5787 5786 5786 5785 5788 5789 5789 5789 5789 5789 5787 5786 5786 5785 5785 5784
5644 5646 5648 5652 5652 5650 5677 5674 5689 5698 5715 5722 5726 5731 5737 5740 5742 5746 5750 5752 5756 5757 5761 5763 5765 5767 5769 5770 5773 5776 5777 5776 5778 5776 5776 5775 5776 5778 5778 5779 5779 5779 5780 5779 5777 5776 5776 5776 5774
5623 5630 5631 5632 5632 5643 5661 5644 5675 5690 5700 5706 5710 5716 5721 5725 5728 5731 5734 5738 5741 5744 5748 5751 5753 5756 5758 5759 5762 5763 5766 5765 5767 5768 5767 5765 5766 5766 5766 5767 5768 5769 5769 5769 5768 5767 5766 5765 5763
5613 5617 5617 5616 5624 5637 5629 5622 5671 5681 5682 5692 5703 5708 5709 5711 5714 5717 5721 5724 5727 5731 5735 5737 5741 5742 5745 5748 5750 5752 5754 5756 5757 5757 5757 5755 5756 5757 5758 5757 5759 5759 5758 5757 5756 5755 5755 5754 5752
5604 5599 5620 5611 5614 5615 5615 5627 5655 5668 5673 5682 5686 5690 5694 5696 5698 5701 5704 5710 5714 5717 5721 5724 5727 5728 5729 5733 5736 5740 5744 5746 5747 5748 5746 5744 5746 5747 5746 5747 5748 5748 5748 5747 5746 5745 5744 5742 5739
5586 5602 5599 5596 5596 5596 5603 5618 5633 5658 5662 5663 5668 5671 5671 5675 5682 5687 5691 5696 5700 5702 5705 5708 5712 5715 5718 5719 5722 5726 5732 5733 5736 5737 5732 5733 5736 5735 5736 5737 5737 5737 5737 5736 5734 5733 5732 5731 5729
5576 5578 5581 5586 5585 5586 5591 5599 5627 5643 5639 5643 5646 5652 5658 5663 5667 5671 5676 5681 5683 5688 5692 5695 5700 5703 5705 5707 5710 5712 5718 5722 5724 5722 5721 5723 5723 5723 5725 5727 5727 5726 5725 5723 5724 5721 5720 5719 5717
5559 5564 5567 5567 5575 5572 5576 5587 5608 5616 5621 5624 5632 5639 5645 5650 5655 5660 5664 5668 5670 5673 5677 5682 5686 5689 5691 5693 5696 5698 5704 5709 5710 5709 5710 5709 5710 5711 5714 5715 5714 5714 5713 5713 5712 5710 5708 5707 5705